[[{"header":{"parameterUnit":"m.s-1","parameterCategory":1,"la1":30.2991,"la2":30.254,"lo1":-89.0895,"lo2":-89.0444,"dy":0.0017,"dx":0.0017,"nx":28,"ny":28,"refTime":"2023-10-31T21:00:00:Z","depth":0,"parameterNumber":2,"parameterNumberName":"U-component_of_WINDS"},"data":[0,0,0,0,0,0,0,0,0,0,0,0,0,0,0,0,0,0,0,0,0,0,0,0,0,0,0,0,0,0,0,0,0,0,0,0,0,0,0,0,0,0,0,0,0,0,0,0,0,0,0,0,0,0,0,0,0,0,-1.0708,-1.0709,0,-1.0741,-1.0742,-1.0742,-1.0728,-1.0727,-1.0726,-1.0726,-1.076,-1.0761,-1.0763,0,0,0,0,0,0,0,0,0,0,0,0,0,-1.0632,-1.0633,-1.0708,-1.0709,-1.0709,-1.0741,-1.0742,-1.0742,-1.0728,-1.0727,-1.0726,-1.0725,-1.0759,-1.0761,-1.0763,0,0,0,0,0,0,0,0,0,0,0,0,0,-1.0665,-1.0634,-1.0708,-1.0706,-1.0706,-1.0741,-1.0742,-1.0742,-1.0728,-1.0727,-1.0726,-1.0725,-1.0759,-1.0761,-1.0764,-1.0803,0,0,-1.0771,-1.0772,0,0,0,0,0,0,0,0,-1.0663,-1.0668,-1.0706,-1.0706,-1.0706,-1.0729,-1.0727,-1.0763,-1.0729,-1.072,-1.0726,-1.0724,-1.0751,-1.0754,-1.0763,-1.0805,-1.0806,-1.0771,-1.0773,-1.0774,-1.0775,0,0,0,0,0,0,0,-1.0661,-1.0666,-1.0721,-1.0706,-1.0707,-1.0703,-1.0706,-1.0734,-1.0742,-1.072,-1.072,-1.0724,-1.0751,-1.076,-1.0763,-1.0807,-1.0771,-1.0774,-1.0775,-1.0776,-1.0882,-1.0884,0,0,0,0,0,0,-1.0658,-1.0664,-1.072,-1.0722,-1.0681,-1.0705,-1.0709,-1.0723,-1.0741,-1.0743,-1.0725,-1.0723,-1.0757,-1.076,-1.0764,-1.0812,-1.0774,-1.0776,-1.0778,-1.0881,-1.0883,-1.0884,0,0,0,0,0,0,-1.0657,-1.0664,-1.0719,-1.0693,-1.07,-1.0708,-1.0724,-1.0724,-1.0734,-1.0744,-1.0746,-1.0733,-1.0756,-1.0761,-1.0794,-1.0813,-1.0777,-1.078,-1.088,-1.0882,-1.0883,-1.0908,0,0,0,0,0,0,-1.0655,-1.0663,-1.0678,-1.0694,-1.0701,-1.0748,-1.0725,-1.0726,-1.0738,-1.0736,-1.0753,-1.0754,-1.0755,-1.079,-1.0796,-1.0816,-1.0782,-1.0878,-1.088,-1.0883,-1.0905,-1.091,-1.0914,0,0,0,0,0,-1.0652,-1.0684,-1.0679,-1.0686,-1.0721,-1.0749,-1.0753,-1.0754,-1.074,-1.0756,-1.0762,-1.0754,-1.081,-1.0793,-1.08,-1.0821,-1.0877,-1.088,-1.0883,-1.0903,-1.0909,-1.0914,0,0,0,0,0,0,-1.0671,-1.0686,-1.0681,-1.0719,-1.0733,-1.0746,-1.0766,-1.076,-1.0778,-1.0776,-1.0775,-1.0779,-1.0813,-1.082,-1.0801,-1.086,-1.0841,-1.0846,-1.0854,-1.086,-1.0865,-1.0863,-1.0784,0,0,0,0,0,-1.068,-1.0702,-1.0713,-1.0746,-1.0753,-1.0758,-1.077,-1.0769,-1.0784,-1.079,-1.0798,-1.0813,-1.0833,-1.0847,-1.0867,-1.0906,-1.0909,-1.0923,-1.0928,-1.0932,-1.0936,-1.0957,-1.0963,-1.0894,-1.0894,-1.0894,0,0,-1.0698,-1.0709,-1.0723,-1.075,-1.076,-1.0783,-1.0763,-1.0788,-1.0804,-1.0793,-1.0825,-1.0831,-1.0847,-1.0883,-1.0899,-1.089,-1.0955,-1.0935,-1.0938,-1.0941,-1.096,-1.0967,-1.0973,-1.0896,-1.0896,-1.0895,0,0,-1.0743,-1.0753,-1.0781,-1.0792,-1.0808,-1.0811,-1.0818,-1.0832,-1.0836,-1.0868,-1.086,-1.0879,-1.0915,-1.0926,-1.0937,-1.0984,-1.0978,-1.0991,-1.1016,-1.1036,-1.1041,-1.1046,-1.1063,-1.107,-1.0995,-1.0995,-1.0995,0,-1.0764,-1.0797,-1.0796,-1.0821,-1.0833,-1.0824,-1.0852,-1.0862,-1.0884,-1.0893,-1.0882,-1.0926,-1.0936,-1.0974,-1.0986,-1.0994,-1.1002,-1.0989,-1.1041,-1.1046,-1.105,-1.1066,-1.1073,-1.0996,-1.0996,-1.0996,-1.0996,0,-1.0822,-1.0845,-1.0865,-1.0887,-1.0901,-1.0927,-1.093,-1.0944,-1.0942,-1.0946,-1.0978,-1.0989,-1.1011,-1.1019,-1.1017,-1.1057,-1.1051,-1.1041,-1.1022,-1.1058,-1.1074,-1.108,-1.0998,-1.0998,-1.0997,-1.0997,0,0,-1.0881,-1.09,-1.0908,-1.0917,-1.0934,-1.0952,-1.0977,-1.0998,-1.101,-1.1025,-1.1047,-1.1077,-1.1067,-1.1079,-1.1077,-1.1095,-1.1132,-1.1083,-1.1083,-1.1092,-1.1177,-1.1185,-1.1193,-1.1127,-1.1129,-1.113,-1.1176,0,-1.0927,-1.0972,-1.0972,-1.1014,-1.1035,-1.1026,-1.1048,-1.106,-1.1065,-1.1083,-1.1088,-1.1109,-1.1094,-1.1101,-1.1118,-1.1124,-1.115,-1.1121,-1.1148,-1.1149,-1.1145,-1.1201,-1.121,-1.1253,-1.1182,-1.1183,-1.1184,0,-1.0987,-1.1004,-1.1048,-1.1061,-1.107,-1.109,-1.1109,-1.1127,-1.114,-1.1142,-1.1155,-1.115,-1.1176,-1.1156,-1.1191,-1.1172,-1.1182,-1.1187,-1.1188,-1.1191,-1.1169,-1.1206,-1.1266,-1.1273,-1.1193,-1.1192,-1.1191,0,-1.1026,-1.106,-1.109,-1.1098,-1.1114,-1.1128,-1.1136,-1.1148,-1.116,-1.1176,-1.1184,-1.1203,-1.1214,-1.1228,-1.1229,-1.1214,-1.1265,-1.1245,-1.1267,-1.1267,-1.1279,-1.1278,-1.1343,-1.1285,-1.1285,-1.1285,-1.1285,0,-1.1078,-1.1106,-1.1108,-1.1127,-1.1157,-1.1156,-1.1185,-1.1191,-1.1202,-1.1222,-1.1214,-1.1233,-1.1232,-1.1251,-1.1252,-1.1281,-1.1286,-1.1288,-1.1288,-1.1289,-1.1289,-1.1296,-1.1294,-1.1286,-1.1286,-1.1286,-1.1285,0,-1.1127,-1.113,-1.1163,-1.1175,-1.1178,-1.12,-1.121,-1.1228,-1.1231,-1.1256,-1.1261,-1.1266,-1.1288,-1.129,-1.1315,-1.1315,-1.135,-1.1347,-1.1346,-1.1346,-1.1368,-1.1366,-1.144,-1.145,-1.1385,-1.1386,-1.1387,0,-1.1161,-1.1182,-1.1196,-1.1208,-1.1216,-1.1236,-1.1249,-1.1248,-1.1261,-1.1277,-1.1293,-1.1314,-1.1331,-1.1365,-1.1371,-1.139,-1.1387,-1.1412,-1.139,-1.139,-1.1388,-1.1387,-1.1389,-1.1416,-1.1417,-1.1418,-1.1418,0,-1.122,-1.122,-1.1238,-1.1257,-1.1272,-1.1286,-1.13,-1.131,-1.1311,-1.1326,-1.1348,-1.1361,-1.1386,-1.1407,-1.1425,-1.1432,-1.1425,-1.1425,-1.1431,-1.1433,-1.1431,-1.1433,-1.1358,-1.1423,-1.1423,-1.1422,-1.1422,-1.1422,-1.1262,-1.128,-1.1293,-1.1313,-1.1323,-1.1336,-1.1353,-1.1358,-1.1376,-1.1397,-1.1395,-1.1419,-1.1431,-1.1455,-1.1463,-1.1482,-1.1474,-1.1483,-1.1485,-1.1487,-1.149,-1.1428,-1.1485,-1.1485,-1.1485,-1.1485,-1.1485,0,-1.1321,-1.1329,-1.1347,-1.1367,-1.1382,-1.1374,-1.1388,-1.1402,-1.1424,-1.1435,-1.1452,-1.1476,-1.1496,-1.1503,-1.1522,-1.1536,-1.1533,-1.1541,-1.154,-1.1542,-1.1496,-1.1489,-1.1543,-1.1543,-1.1543,-1.1543,-1.1543,-1.1543,-1.1354,-1.1384,-1.1385,-1.142,-1.1426,-1.145,-1.1459,-1.147,-1.148,-1.1508,-1.1524,-1.1528,-1.1538,-1.1558,-1.1575,-1.1577,-1.1584,-1.1593,-1.1593,-1.1551,-1.1545,-1.1539,-1.1533,-1.1595,-1.1595,-1.1638,-1.1638,-1.1638]},{"header":{"parameterUnit":"m.s-1","parameterCategory":1,"la1":30.2991,"la2":30.254,"lo1":-89.0895,"lo2":-89.0444,"dy":0.0017,"dx":0.0017,"nx":28,"ny":28,"refTime":"2023-10-31T21:00:00:Z","depth":0,"parameterNumber":3,"parameterNumberName":"V-component_of_WINDS"},"data":[0,0,0,0,0,0,0,0,0,0,0,0,0,0,0,0,0,0,0,0,0,0,0,0,0,0,0,0,0,0,0,0,0,0,0,0,0,0,0,0,0,0,0,0,0,0,0,0,0,0,0,0,0,0,0,0,0,0,-6.8661,-6.8662,0,-6.8745,-6.8746,-6.8747,-6.8706,-6.8704,-6.8702,-6.87,-6.878,-6.8784,-6.8788,0,0,0,0,0,0,0,0,0,0,0,0,0,-6.846,-6.8463,-6.8661,-6.8662,-6.8663,-6.8745,-6.8746,-6.8747,-6.8706,-6.8704,-6.8701,-6.8699,-6.8779,-6.8784,-6.8788,0,0,0,0,0,0,0,0,0,0,0,0,0,-6.8546,-6.8465,-6.866,-6.8653,-6.8653,-6.8745,-6.8746,-6.8747,-6.8707,-6.8704,-6.87,-6.8697,-6.8777,-6.8783,-6.8789,-6.8892,0,0,-6.8808,-6.8811,0,0,0,0,0,0,0,0,-6.8541,-6.8553,-6.8653,-6.8653,-6.8654,-6.8712,-6.8704,-6.8796,-6.8708,-6.8686,-6.87,-6.8696,-6.876,-6.8767,-6.879,-6.8896,-6.8899,-6.8809,-6.8812,-6.8815,-6.8817,0,0,0,0,0,0,0,-6.8535,-6.8549,-6.8694,-6.8654,-6.8655,-6.8643,-6.8652,-6.8722,-6.874,-6.8688,-6.8685,-6.8696,-6.8759,-6.8784,-6.8791,-6.89,-6.8809,-6.8814,-6.8818,-6.882,-6.9096,-6.9099,0,0,0,0,0,0,-6.853,-6.8544,-6.8691,-6.8696,-6.8588,-6.8649,-6.8659,-6.8696,-6.8739,-6.8742,-6.8699,-6.8694,-6.8775,-6.8784,-6.8794,-6.8918,-6.8815,-6.8821,-6.8824,-6.9092,-6.9096,-6.91,0,0,0,0,0,0,-6.8526,-6.8543,-6.8688,-6.862,-6.8637,-6.8656,-6.8698,-6.87,-6.8724,-6.8747,-6.8749,-6.8721,-6.8773,-6.8785,-6.8868,-6.892,-6.8824,-6.8829,-6.9088,-6.9093,-6.9098,-6.9166,0,0,0,0,0,0,-6.852,-6.8542,-6.8583,-6.8621,-6.8641,-6.8763,-6.8702,-6.8704,-6.8736,-6.873,-6.8769,-6.8772,-6.8771,-6.8859,-6.8875,-6.8927,-6.8834,-6.9083,-6.909,-6.9097,-6.9159,-6.9173,-6.9185,0,0,0,0,0,-6.8513,-6.8597,-6.8585,-6.8603,-6.8692,-6.8766,-6.8777,-6.8776,-6.874,-6.878,-6.8795,-6.8771,-6.8912,-6.8868,-6.8885,-6.894,-6.908,-6.9088,-6.9096,-6.9153,-6.917,-6.9184,0,0,0,0,0,0,-6.8561,-6.8601,-6.8589,-6.8688,-6.8724,-6.8759,-6.8809,-6.8794,-6.8839,-6.8832,-6.8827,-6.8836,-6.8923,-6.8939,-6.889,-6.9042,-6.899,-6.9002,-6.9028,-6.9044,-6.9057,-6.9051,-6.8839,0,0,0,0,0,-6.8584,-6.8642,-6.8673,-6.8757,-6.8776,-6.879,-6.8822,-6.8818,-6.8855,-6.8869,-6.889,-6.8925,-6.8977,-6.9011,-6.906,-6.9161,-6.9169,-6.9207,-6.922,-6.923,-6.924,-6.9295,-6.9313,-6.9127,-6.9127,-6.9126,0,0,-6.863,-6.8659,-6.8696,-6.8768,-6.8795,-6.8854,-6.8803,-6.8867,-6.891,-6.8878,-6.8959,-6.8976,-6.9014,-6.9107,-6.9148,-6.9123,-6.9293,-6.924,-6.9249,-6.9253,-6.9305,-6.9323,-6.9338,-6.9132,-6.9131,-6.913,0,0,-6.8745,-6.8773,-6.8847,-6.8876,-6.892,-6.8928,-6.8946,-6.8984,-6.8994,-6.9076,-6.9053,-6.9104,-6.9194,-6.9222,-6.9249,-6.9376,-6.9355,-6.9392,-6.9458,-6.9512,-6.9526,-6.9539,-6.9585,-6.9601,-6.9402,-6.9402,-6.9402,0,-6.8796,-6.8886,-6.8886,-6.8953,-6.8985,-6.8961,-6.9035,-6.9063,-6.9119,-6.9141,-6.9113,-6.9226,-6.925,-6.935,-6.9381,-6.9403,-6.9422,-6.9387,-6.9525,-6.9538,-6.955,-6.9593,-6.961,-6.9406,-6.9406,-6.9405,-6.9405,0,-6.8947,-6.901,-6.9064,-6.9122,-6.916,-6.923,-6.9239,-6.9278,-6.9271,-6.9282,-6.9365,-6.9394,-6.9449,-6.9472,-6.9465,-6.9571,-6.9554,-6.9525,-6.9473,-6.9572,-6.9612,-6.9629,-6.9412,-6.9411,-6.9409,-6.9408,0,0,-6.9094,-6.9153,-6.9172,-6.9199,-6.9246,-6.9293,-6.9362,-6.9418,-6.9451,-6.949,-6.9547,-6.9625,-6.9599,-6.9629,-6.9625,-6.9672,-6.9772,-6.9638,-6.9639,-6.9662,-6.989,-6.9912,-6.9931,-6.9759,-6.9762,-6.9764,-6.9887,0,-6.9212,-6.9335,-6.9337,-6.9449,-6.9507,-6.9486,-6.9545,-6.958,-6.9592,-6.9642,-6.9654,-6.971,-6.9672,-6.969,-6.9735,-6.975,-6.9817,-6.9741,-6.981,-6.9813,-6.9802,-6.9952,-6.9975,-7.0089,-6.9903,-6.9905,-6.9907,0,-6.9366,-6.9414,-6.9533,-6.9573,-6.9597,-6.9651,-6.9703,-6.9751,-6.9789,-6.9795,-6.9829,-6.9819,-6.9887,-6.9834,-6.9928,-6.9876,-6.9904,-6.9916,-6.992,-6.9926,-6.9866,-6.9962,-7.0126,-7.0143,-6.9932,-6.993,-6.9929,0,-6.9462,-6.9556,-6.9639,-6.9662,-6.971,-6.9749,-6.977,-6.9806,-6.984,-6.9884,-6.9906,-6.9957,-6.9985,-7.0025,-7.0028,-6.9989,-7.0123,-7.0069,-7.0128,-7.0129,-7.0157,-7.0156,-7.0328,-7.0176,-7.0176,-7.0175,-7.0175,0,-6.9594,-6.9667,-6.9683,-6.9734,-6.9815,-6.9817,-6.9897,-6.9914,-6.9946,-7.0,-6.9983,-7.0033,-7.0034,-7.0085,-7.0087,-7.0165,-7.0177,-7.0183,-7.0183,-7.0185,-7.0184,-7.0203,-7.0195,-7.018,-7.0179,-7.0178,-7.0177,0,-6.9714,-6.9728,-6.9817,-6.9857,-6.9868,-6.9926,-6.9959,-7.0007,-7.0019,-7.0086,-7.0102,-7.0119,-7.0178,-7.0186,-7.0253,-7.0255,-7.0349,-7.034,-7.0337,-7.0335,-7.0394,-7.0389,-7.0585,-7.061,-7.0442,-7.0443,-7.0445,0,-6.9798,-6.9854,-6.99,-6.9936,-6.9961,-7.0018,-7.0053,-7.0057,-7.0094,-7.0142,-7.0184,-7.0242,-7.0289,-7.0383,-7.0401,-7.0453,-7.0445,-7.051,-7.0452,-7.0453,-7.0446,-7.0443,-7.0448,-7.0521,-7.0523,-7.0524,-7.0526,0,-6.9945,-6.9949,-7.0002,-7.0058,-7.0101,-7.0144,-7.0184,-7.0214,-7.0222,-7.0265,-7.0326,-7.0362,-7.0433,-7.049,-7.0542,-7.0561,-7.0545,-7.0544,-7.056,-7.0563,-7.0559,-7.0562,-7.0367,-7.0539,-7.0538,-7.0537,-7.0536,-7.0535,-7.0049,-7.0099,-7.014,-7.0199,-7.0231,-7.0269,-7.0317,-7.0336,-7.0388,-7.0447,-7.0445,-7.0513,-7.0549,-7.0617,-7.0641,-7.0693,-7.0671,-7.0695,-7.0701,-7.0707,-7.0713,-7.0551,-7.0702,-7.0702,-7.0701,-7.0701,-7.0701,0,-7.0196,-7.0221,-7.0276,-7.0335,-7.0382,-7.0365,-7.0409,-7.0448,-7.0509,-7.0546,-7.0592,-7.0663,-7.0719,-7.0741,-7.0796,-7.0832,-7.0826,-7.0847,-7.0844,-7.0849,-7.0729,-7.071,-7.0851,-7.0851,-7.0851,-7.0851,-7.0851,-7.0851,-7.0277,-7.0361,-7.037,-7.0468,-7.0493,-7.0561,-7.0588,-7.0623,-7.0653,-7.0733,-7.078,-7.0795,-7.0826,-7.0883,-7.0933,-7.0938,-7.0959,-7.0983,-7.0984,-7.0872,-7.0857,-7.0843,-7.0824,-7.0987,-7.0987,-7.1099,-7.11,-7.1101]}]]